Location: Bittelbronn
(48.4454°N, 8.5870°E)
Time: 18:03:13
(UTC+00:00)

Cosmos 1455 - Pass Details

Date: 23 May 2024
Orbit: 445 x 460 km, 82.5° (Epoch: 16 June)

Event Time Altitude Azimuth Distance (km) Brightness Sun altitude
Rises 02:00:08 0° 333° (NNW) 2,460 6.0 -12.4°
Reaches altitude 10° 02:02:55 10° 308° (NW) 1,583 4.7 -12.2°
Maximum altitude 02:04:50 14° 274° (W) 1,338 4.0 -12.0°
Enters shadow 02:05:40 13° 257° (WSW) 1,386 3.9 -11.9°
